Lexington Weather

Lexington, Massachusetts, USA

24°F
3/3/2021 3:33am 
  • Lexington Conditions: Overcast
  • Temperature: 23.9°F / -4.5°CWarmer 1.4°F than last hour.
  • Dew Point: 10.9°FIncreased 1.0°Fsince last hour.
  • Relative Humidity: 57%Decreased 1.0% since last hour.
  • Wind: Wind from SW SW Calm, 10-min avg: 1 mph, gust: 8 mph
  • Barometer: 29.85 inFalling 0.04  inHg/hr Falling Slowly
  • Visibility: 10 miles
  • Snow Today: 0.0 in
  •   

Regional Weather Roundup
for Boston / Norton, MA

        
000
ASUS41 KBOX 261404
RWRBOX

REGIONAL WEATHER ROUNDUP
NATIONAL WEATHER SERVICE BOSTON/NORTON MA
900 AM EST FRI FEB 26 2021

NOTE:  "FAIR" INDICATES FEW OR NO CLOUDS BELOW 12,000 FEET WITH NO 
SIGNIFICANT WEATHER AND/OR OBSTRUCTIONS TO VISIBILITY.

MAZALL-261500-
EASTERN MASSACHUSETTS
  
CITY           SKY/WX    TMP DP  RH WIND       PRES   REMARKS
BOSTON         MOSUNNY   31  12  45 NW7       30.43R WCI  24          
BEVERLY        SUNNY     29  12  49 NW8       30.41R WCI  21          
LAWRENCE       SUNNY     27  13  55 W6        30.44R WCI  20          
BEDFORD        SUNNY     30  14  51 N5        30.42R WCI  25          
BLUE HILL        N/A     29  13  51 NW7       30.37R WCI  22          
NORWOOD        SUNNY     35  15  44 NW9       30.42R WCI  28          
MARSHFIELD     SUNNY     36  14  41 VRB5G12   30.42R WCI  32          
PLYMOUTH       SUNNY     34  13  41 W9        30.42R WCI  27          
TAUNTON        SUNNY     35  13  40 NW8       30.43R WCI  29          
NEW BEDFORD    SUNNY     37  12  35 W10       30.43R WCI  30          
$$

MAZALL-261500-
CAPE COD AND THE ISLANDS
  
CITY           SKY/WX    TMP DP  RH WIND       PRES   REMARKS
FALMOUTH       NOT AVBL                                               
HYANNIS        SUNNY     35  14  42 NW10      30.41R WCI  27          
CHATHAM        SUNNY     36  18  48 NW8       30.43R WCI  30          
PROVINCETOWN   SUNNY     33  18  53 NW14      30.43R WCI  23          
NANTUCKET      SUNNY     35  15  44 NW17      30.44R WCI  25          
MARTHAS VNYRD  SUNNY     36  14  40 NW10      30.44R WCI  28          
$$
 
MAZALL-261500-
CENTRAL AND WESTERN MASSACHUSETTS
  
CITY           SKY/WX    TMP DP  RH WIND       PRES   REMARKS
WORCESTER      SUNNY     30  14  51 NW10      30.37R WCI  21          
FITCHBURG      SUNNY     30  15  53 N8        30.42R WCI  22          
ORANGE         SUNNY     30  16  56 NW6       30.41R WCI  24          
SPRINGFIELD    MOSUNNY   33  18  54 W5        30.41R WCI  28          
WESTFIELD      SUNNY     31  19  61 CALM      30.42R                  
NORTH ADAMS    CLOUDY    29  17  61 VRB3      30.40R                  
PITTSFIELD     CLOUDY    26  18  71 W7        30.36R WCI  18          
$$
 
RIZALL-261500-
RHODE ISLAND
  
CITY           SKY/WX    TMP DP  RH WIND       PRES   REMARKS
PROVIDENCE     MOSUNNY   36  16  44 NW9       30.44R WCI  29          
NEWPORT        SUNNY     34  17  50 NW9       30.44R WCI  27          
BLOCK ISLAND   SUNNY     35  17  47 W7        30.47R WCI  29          
SMITHFIELD     SUNNY     32  17  54 NW7       30.41R WCI  26          
WESTERLY       SUNNY     33  17  51 CALM      30.46R                  
$$
 
CTZALL-261500-
CONNECTICUT
  
CITY           SKY/WX    TMP DP  RH WIND       PRES   REMARKS
BRADLEY INTL   MOSUNNY   32  18  56 CALM      30.43R                  
HARTFORD       SUNNY     35  18  49 N8        30.46R WCI  29          
BRIDGEPORT     SUNNY     36  20  52 SW6       30.47R WCI  31          
DANBURY        SUNNY     33  17  51 SW7       30.44R WCI  27          
GROTON         SUNNY     35  19  52 W10       30.46R WCI  27          
NEW HAVEN      SUNNY     37  18  46 N8        30.47R WCI  31          
CHESTER        FAIR      36  16  44 NW5       30.44S WCI  32          
MERIDEN        SUNNY     34  19  54 SE3       30.46R                  
WILLIMANTIC    SUNNY     33  18  53 NW12      30.44R WCI  24          
OXFORD         SUNNY     31  19  61 NW3       30.43R                  
$$

MEZ002-015-021-024-NHZ003-005-008-011-012-014-VTZ005-008-261500-
NORTHERN NEW ENGLAND
  
CITY           SKY/WX    TMP DP  RH WIND       PRES   REMARKS
PORTLAND ME    MOSUNNY   24   9  52 NW9       30.41R WCI  14          
BANGOR ME      SUNNY     15  -3  44 NW14      30.38R WCI   0          
CONCORD NH     SUNNY     24   8  50 NW13      30.42R WCI  12          
MANCHESTER NH  SUNNY     27  11  51 NW10      30.42R WCI  17          
NASHUA NH      SUNNY     27  14  58 NW9       30.44R WCI  18          
PORTSMOUTH NH  SUNNY     27   5  38 W16       30.40R WCI  15          
JAFFREY NH     SUNNY     27  11  51 VRB6      30.37R WCI  20          
KEENE NH       FLURRIES  30  16  56 N6        30.44R WCI  24          
BURLINGTON VT  SUNNY     21   5  50 E5        30.46R WCI  15          
MT. WASHINGTON FOG       -6  -8  92 NW72G78     N/A  VSB 1/4 WCI -44  
$$

NYZ052-076-261500-
EASTERN NEW YORK
  
CITY           SKY/WX    TMP DP  RH WIND       PRES   REMARKS
ALBANY         PTSUNNY   29  19  66 W8        30.44R WCI  21          
NEW YORK CITY  MOSUNNY   37  15  40 NW10      30.48R WCI  30          
$$
 
ANZALL-261500-
MARINE OBSERVATIONS
  
STATION/POSITION TIME  TEMP    WIND        PRES    VSBY  WAVE
                       AIR SEA DIR/SP/G                  HT/PER
                 (UTC) (F)     (DEG/KT/KT) (MB)    (MI)  (FT/S)
BOSTON BUOY      1350   30 39  320/ 12/ 16 1030.5R         2/ 3
BUZZARDS BAY     1300          320/  9/ 11 1031.2R
NANTUCKET SOUND  1340      36  320/ 12/ 16   N/A
MASS BAY-STELLWA 1304   30     330/ 17/ 21 1028.5R  1 7/8  2/ 4
ISLE OF SHOALS   1300   26     290/ 16/ 19 1028.6R
S OF BLOCK IS    1326      40                N/A           3/ 4
$$

......................KEY.........................
  SKY/WX - SKY CONDITION/PRESENT WEATHER
  TMP    - TEMPERATURE IN FAHRENHEIT
  DWPT   - DEWPOINT IN FAHRENHEIT
  RH     - RELATIVE HUMIDITY IN PERCENT
  WIND   - DIRECTION AND SPEED IN MPH
  PRES   - MEAN SEA LEVEL PRESSURE IN INCHES OF HG
  WCI    - WIND CHILL INDEX
  VSB    - VISIBILITY IN MILES
  HX     - HEAT INDEX
  TC     - TEMPERATURE IN CELSIUS
  VRB    - VARIABLE WIND DIRECTION
  N/A    - NOT AVAILABLE
  
      

Other recent Regional Weather Roundups

Wed Mar 3, 3:04am

Wed Mar 3, 2:04am

Wed Mar 3, 1:04am

Wed Mar 3, 12:04am

Tue Mar 2, 11:04pm

Tue Mar 2, 10:05pm

Tue Mar 2, 9:04pm

Tue Mar 2, 8:04pm

Tue Mar 2, 7:04pm

Tue Mar 2, 6:04pm

Tue Mar 2, 5:04pm

Tue Mar 2, 4:05pm

Tue Mar 2, 3:04pm

Tue Mar 2, 2:04pm

Tue Mar 2, 1:04pm

Tue Mar 2, 12:04pm

Tue Mar 2, 11:04am

Tue Mar 2, 10:05am

Tue Mar 2, 9:04am

Tue Mar 2, 8:04am

Tue Mar 2, 7:04am

Tue Mar 2, 6:05am

Tue Mar 2, 5:04am

Tue Mar 2, 4:04am

Tue Mar 2, 3:04am

Tue Mar 2, 2:04am

Tue Mar 2, 1:04am

Tue Mar 2, 12:04am

Mon Mar 1, 11:04pm

Mon Mar 1, 10:04pm

Mon Mar 1, 9:04pm

Mon Mar 1, 8:04pm

Mon Mar 1, 7:04pm

Mon Mar 1, 6:04pm

Mon Mar 1, 5:04pm

Mon Mar 1, 4:05pm

Mon Mar 1, 3:05pm

Mon Mar 1, 2:04pm

Mon Mar 1, 1:04pm

Mon Mar 1, 12:04pm

Mon Mar 1, 11:04am

Mon Mar 1, 10:04am

Mon Mar 1, 9:04am

Mon Mar 1, 8:05am

Mon Mar 1, 7:04am

Mon Mar 1, 6:04am

Mon Mar 1, 5:04am

Mon Mar 1, 4:05am

Mon Mar 1, 3:04am

Mon Mar 1, 2:04am

Mon Mar 1, 1:04am

Mon Mar 1, 12:05am

Sun Feb 28, 11:04pm

Sun Feb 28, 10:04pm

Sun Feb 28, 9:04pm

Sun Feb 28, 8:04pm

Sun Feb 28, 7:04pm

Sun Feb 28, 6:05pm

Sun Feb 28, 5:04pm

Sun Feb 28, 4:05pm

Sun Feb 28, 3:04pm

Sun Feb 28, 2:04pm

Sun Feb 28, 1:04pm

Sun Feb 28, 12:04pm

Sun Feb 28, 11:04am

Sun Feb 28, 10:04am

Sun Feb 28, 9:04am

Sun Feb 28, 8:04am

Sun Feb 28, 7:04am

Sun Feb 28, 6:04am

Sun Feb 28, 5:04am

Sun Feb 28, 4:04am

Sun Feb 28, 3:04am

Sun Feb 28, 2:04am

Sun Feb 28, 1:04am

Sun Feb 28, 12:04am

Sat Feb 27, 11:04pm

Sat Feb 27, 10:04pm

Sat Feb 27, 9:04pm

Sat Feb 27, 8:04pm

Sat Feb 27, 7:04pm

Sat Feb 27, 6:04pm

Sat Feb 27, 5:04pm

Sat Feb 27, 4:04pm

Sat Feb 27, 3:05pm

Sat Feb 27, 2:05pm

Sat Feb 27, 1:04pm

Sat Feb 27, 12:04pm

Sat Feb 27, 11:04am

Sat Feb 27, 10:04am

Sat Feb 27, 9:05am

Sat Feb 27, 8:04am

Sat Feb 27, 7:04am

Sat Feb 27, 6:04am

Sat Feb 27, 5:04am

Sat Feb 27, 4:04am

Sat Feb 27, 3:04am

Sat Feb 27, 2:04am

Sat Feb 27, 1:04am

Sat Feb 27, 12:04am

Fri Feb 26, 11:04pm

Fri Feb 26, 10:04pm

Fri Feb 26, 9:04pm

Fri Feb 26, 8:04pm

Fri Feb 26, 7:04pm

Fri Feb 26, 6:04pm

Fri Feb 26, 5:04pm

Fri Feb 26, 4:04pm

Fri Feb 26, 3:04pm

Fri Feb 26, 2:04pm

Fri Feb 26, 1:04pm

Fri Feb 26, 12:04pm

Fri Feb 26, 11:04am

Fri Feb 26, 10:04am

Fri Feb 26, 8:04am

Fri Feb 26, 7:04am

Fri Feb 26, 6:04am

Fri Feb 26, 5:04am

Fri Feb 26, 4:04am

Fri Feb 26, 3:04am

Fri Feb 26, 2:04am

Fri Feb 26, 1:04am

Fri Feb 26, 12:04am

Thu Feb 25, 11:04pm

Thu Feb 25, 10:04pm

Thu Feb 25, 9:04pm

Thu Feb 25, 8:05pm

Thu Feb 25, 7:05pm

Thu Feb 25, 6:04pm

Thu Feb 25, 5:04pm

Thu Feb 25, 4:05pm

Thu Feb 25, 3:05pm

Thu Feb 25, 2:04pm

Thu Feb 25, 1:04pm

Thu Feb 25, 12:05pm

Thu Feb 25, 11:04am

Thu Feb 25, 10:04am

Thu Feb 25, 9:04am

Thu Feb 25, 8:04am

Thu Feb 25, 7:04am

Thu Feb 25, 6:04am

Thu Feb 25, 5:04am

Thu Feb 25, 4:04am

Thu Feb 25, 3:04am

Thu Feb 25, 2:04am

Thu Feb 25, 1:04am

Thu Feb 25, 12:04am

Wed Feb 24, 11:04pm

Wed Feb 24, 10:05pm

Wed Feb 24, 9:04pm

Wed Feb 24, 8:04pm

Wed Feb 24, 7:04pm

Wed Feb 24, 6:04pm

Wed Feb 24, 5:04pm

Wed Feb 24, 4:04pm

Wed Feb 24, 3:04pm

Wed Feb 24, 2:05pm

Wed Feb 24, 1:05pm

Wed Feb 24, 12:05pm

Wed Feb 24, 11:04am

Wed Feb 24, 10:04am

Wed Feb 24, 9:04am

Wed Feb 24, 8:04am

Wed Feb 24, 7:04am

Wed Feb 24, 6:04am

Wed Feb 24, 5:04am

Wed Feb 24, 4:04am

Meta data:

ID: 10fb7e12-1785-43df-85d4-e5666a19faa7
Link: https://api.weather.gov/products/10fb7e12-1785-43df-85d4-e5666a19faa7